Regional Weather Roundup
Issued by NWS

Home | Current Version | Previous Version | Text Only | Print | Product List | Glossary On
Versions: 1 2 3 4 5 6 7 8 9 10 11 12 13 14 15 16 17 18 19 20 21 22 23 24 25 26 27 28 29 30 31 32 33 34 35 36 37 38 39 40 41 42 43 44 45 46 47 48 49 50
000
ASUS43 KDMX 192007
RWRIA

WEATHER ROUNDUP FOR IOWA
NATIONAL WEATHER SERVICE DES MOINES IA
300 PM CDT TUE AUG 19 2014

NOTE: "FAIR" INDICATES FEW OR NO CLOUDS BELOW 12,000 FEET WITH NO
SIGNIFICANT WEATHER AND/OR OBSTRUCTIONS TO VISIBILITY.

* - THESE STATIONS ARE NOT NWS STATIONS...THUS NOT UNDER NWS
QUALITY CONTROL.  THEY ALSO DO NOT REPORT WEATHER SUCH
AS PRECIPITATION OR FOG.

IAZ001>003-012>014-020>022-031>034-043>046-192100-
   NORTHWEST IOWA

CITY           SKY/WX    TMP DP  RH WIND       PRES   REMARKS
CARROLL *      MOSUNNY   81  64  57 NW5       29.82S HX  82
CHEROKEE *     SUNNY     81  64  57 NW7       29.82S HX  82
DENISON *      SUNNY     82  66  57 W8        29.81S HX  85
LE MARS *      MOSUNNY   82  66  57 VRB6      29.83R HX  85
ORANGE CITY *  SUNNY     82  63  51 W5        29.83S HX  83
SHELDON *      SUNNY     81  64  57 CALM      29.81F HX  82
SIOUX CITY     SUNNY     85  63  47 CALM      29.81F HX  86
SPENCER        SUNNY     82  63  52 W8        29.82S HX  83
STORM LAKE *   SUNNY     79  68  69 NW7       29.84S HX  81
$$

IAZ055>058-069>071-079>083-090>094-192100-
   SOUTHWEST IOWA

CITY           SKY/WX    TMP DP  RH WIND       PRES   REMARKS
ATLANTIC *     SUNNY     84  64  51 CALM      29.82S HX  86
AUDUBON *      SUNNY     86  68  54 CALM      29.84S HX  89
CLARINDA *     SUNNY     86  66  51 CALM      29.83F HX  88
COUNCIL BLFS * SUNNY     84  63  48 NW5       29.81F HX  85
CRESTON *      SUNNY     82  66  57 NW6G12    29.84F HX  85
HARLAN  *      SUNNY     82  64  54 CALM      29.86S HX  84
LAMONI         SUNNY     85  66  53 NW9       29.82F HX  87
RED OAK *      SUNNY     86  64  48 CALM      29.82F HX  87
SHENANDOAH *   SUNNY     86  68  54 NE5       29.82F HX  89
$$

IAZ047>049-059>061-072>074-084-192100-
   CENTRAL IOWA

CITY           SKY/WX    TMP DP  RH WIND       PRES   REMARKS
AMES           SUNNY     83  64  52 VRB7      29.80F HX  84
ANKENY *       SUNNY     84  64  51 W8        29.80S HX  86
CHARITON *     MOSUNNY   82  68  61 W10       29.82S HX  85
DES MOINES     MOSUNNY   86  63  45 W9        29.80F HX  87
GRINNELL*      MOSUNNY   82  64  54 W5G16     29.81S HX  84
KNOXVILLE *    MOSUNNY   82  64  54 W8G16     29.80S HX  84
MARSHALLTOWN   MOSUNNY   82  64  54 NW9       29.80S HX  83
PELLA *        MOSUNNY   82  64  54 NW6       29.81F HX  84
PERRY *          N/A     82  64  54 W6        29.81F HX  84
$$

IAZ004>006-015-016-023>025-035-036-192100-
   NORTH CENTRAL IOWA

CITY           SKY/WX    TMP DP  RH WIND       PRES   REMARKS
ALGONA *       PTSUNNY   81  64  57 W8        29.81F HX  82
CLARION *      MOSUNNY   81  64  57 NW8       29.81F HX  82
ESTHERVILLE    MOSUNNY   80  64  58 W7        29.80F HX  82
FORT DODGE *   PTSUNNY   82  64  54 W8        29.82S HX  84
MASON CITY     PTSUNNY   79  62  56 NW9       29.81S HX  80
FOREST CITY *  CLOUDY    81  63  54 W6        29.80F HX  82
IOWA FALLS *   PTSUNNY   79  63  57 W5        29.82S HX  80
$$

IAZ007>011-017>019-026>030-037>042-050>054-066-192100-
   NORTHEAST IOWA

CITY           SKY/WX    TMP DP  RH WIND       PRES   REMARKS
CEDAR RAPIDS   MOSUNNY   84  64  50 NW15      29.77S HX  85
CHARLES CITY * MOSUNNY   79  64  61 NW10G20   29.79S HX  81
CLINTON *      MOSUNNY   84  64  51 W12G20    29.77S HX  86
DECORAH *      PTSUNNY   77  63  61 W9        29.76S
DUBUQUE        MOSUNNY   82  63  52 NW13      29.76S HX  83
MONTICELLO *   MOSUNNY   82  64  54 NW16      29.75F HX  84
OELWEIN *      MOSUNNY   79  64  61 W10       29.78F HX  81
WATERLOO       MOSUNNY   83  62  49 NW8G18    29.77S HX  84
$$

IAZ064-065-067-068-078-192100-
   EAST CENTRAL IOWA

CITY           SKY/WX    TMP DP  RH WIND       PRES   REMARKS
DAVENPORT      MOSUNNY   84  64  50 W13       29.75F HX  85
IOWA CITY      MOSUNNY   85  66  53 NW14      29.78S HX  87
MT. PLEASANT * MOSUNNY   88  61  40 W13       29.78S HX  88
MUSCATINE *    MOSUNNY   88  63  42 NW14      29.76S HX  88
QUAD CITIES    MOSUNNY   87  64  46 W15G23    29.74F HX  88
$$

IAZ062-063-075>077-085>089-095>099-192100-
   SOUTHEAST IOWA

CITY           SKY/WX    TMP DP  RH WIND       PRES   REMARKS
BURLINGTON     LGT RAIN  84  70  62 W7        29.78S HX  88
FAIRFIELD *    MOSUNNY   84  64  51 NW15      29.79F HX  86
FORT MADISON * MOSUNNY   86  73  66 SW7       29.79S HX  93
KEOKUK *       MOSUNNY   82  72  69 W9        29.79S HX  87
OSKALOOSA *    PTSUNNY   84  68  58 W8        29.80F HX  87
CENTERVILLE *  SUNNY     86  68  54 W6        29.83S HX  89
OTTUMWA        MOSUNNY   85  65  51 NW13      29.80S HX  86
WASHINGTON *   SUNNY     84  66  54 W10G17    29.78S HX  86
$$

ABBREVIATIONS USED IN REMARKS
   TC - TEMPERATURES IN CELSIUS
  WCI - WIND CHILL INDEX
   HX - HEAT INDEX
  VSB - VISIBILITY
$$



USA.gov is the U.S. government's official web portal to all federal, state and local government web resources and services.